sat.trackr.live / text

‹ back to catalog

STARLINK-31014

NORAD 58538 · 2023-192H

PAYLOAD ACTIVE UNKNOWN

§ Identity

Operator
Country
US
Launch date
2023-12-08
Launch site
AFWTR
Launch vehicle
Mass (kg)
RCS (m²)

Purposes: comms

External: N2YO · Heavens-Above · Gunter

§ Orbital elements

Epoch: 2026-05-25T04:04:36.424128Z

Period
93.85 min
Inclination
53.1618°
Eccentricity
0.0001271
Mean motion
15.34390815 rev/d
Perigee alt
461.9 km
Apogee alt
463.6 km
Semi-major
6,840.9 km
B*
3.2859e-5
RAAN
66.8770°
Arg perigee
91.5218°
Mean anomaly
268.5930°
Rev number
13,770

§ Raw data

STARLINK-310141 58538U 23192H   26145.16986602  .00000734  00000+0  32859-4 0  99962 58538  53.1618  66.8770 0001271  91.5218 268.5930 15.34390815137706

JSON: /api/v1/satellites/58538 · /tle

For live sub-satellite position, see the globe view (requires WebGL).

§ Visibility from observer

Set your observer location to see the next 7 days of passes ≥ 10°. The values pass through the URL so the page stays shareable.

No JS? Fill the form by hand. The geolocation button needs JavaScript.